MET5914 - Philadelphia to Boston

Embraer ERJ-145LR
159AG
1 hr 15 mins
244 nm
Scheduled - Daily

Bid/PiRep Status

Bid was submitted on December 21st, 2016 15:58 UTC.
PiRep # 74430: Approved by Sean Doyle on December 23rd, 2016 9:06 UTC

Departure

Departing from
Philadelphia (PHL)
Departure gate
Scheduled Departure
GMT 1445
Local 1045
METAR KPHL 191754Z 29021G27KT 10SM BKN050 12/M01 A2961 RMK AO2 PK WND 28030/1741 SLP025 T01171011 10122 20100 51019
TAF KPHL 191720Z 1918/2024 30021G35KT P6SM BKN050 FM192300 28016G28KT P6SM BKN045 FM200700 28012KT P6SM SCT040 FM201200 28015G22KT P6SM SCT250

Arrival

Arriving at
Boston (BOS)
Arrival gate
Scheduled Arrival
GMT 1600
Local 1200

Route Map

Planning Resources

KPHL-BRAND-RBV-JOANI-CREEL-SHLEP-HOFFI-HTO-SEY-BURDY-KBOS
DITCH V312 DRIFT V139 MANTA V308 ORW V16 WOONS
BRAND DCT RBV DCT JOANI DCT CREEL DCT SHLEP DCT HOFFI DCT HTO DCT SEY DCT BURDY DCT
PHLS DITCH V312 DRIFT V308 ORW WOONS
DITCH V312 DRIFT V139 PLUME V268 KOPPY V308 RICED V139 BEDYA V268 SHLEP V139 BEADS V308 ORW WOONS
Route:
OFP Layout:
Units:
Detailed Navlog:
ETOPS Planning:
Plan Stepclimbs:
Runway Analysis:
Include NOTAMS:
FIR NOTAMS:
Flight Maps:

Return Flights

MET5911
Embraer ERJ-145LR
0300 GMT
MET5913
Embraer ERJ-145LR
1200 GMT
MET5915
Bombardier Dash-8-Q400
2245 GMT
MET5915
Boeing 757-200W
0055 GMT
MET5917
Embraer ERJ-145LR
1900 GMT

Popularity

Hub Current Bids PiReps this month Total PiReps
KLAX 0 0 3
KBOS 0 0 4
KDFW 0 0 0